logo
Search for airport 
image banner adimage banner adimage banner ad
image banner ad

LLBL - Beilinson Hospital

Located in פ"ת, Israel

ICAO - , IATA -

Data provided by Airmate  

General information

Coordinates: N32°5'13" E34°51'54"
Elevation is 114 feet MSL.
Magnetic variation is 5° East
View others Airports in Tel Aviv District

Operational data

Special qualification required
Current time UTC:
Current local time:
Weather at : LLBG - Tel-Aviv/Ben-Gurion ( 9 km )
METAR: LLBG 251820Z 26005KT 220V290 9999 SCT020 22/18 Q1012 NOSIG
TAF: TAF LLBG 251707Z 2518/2618 26008KT 9999 FEW025 BECMG 2519/2521 VRB03KT 7000 SCT020 PROB40 TEMPO 2521/2605 17006KT 5000 FU SCT015 BKN018 BECMG 2607/2609 27010KT 9999 FEW025 BECMG 2615/2617 VRB03KT CAVOK TX29/2611Z TN20/2603Z
View NOTAMs / SUP AIP / TFR affecting this airport [VIEW]
Communications frequencies: [VIEW]

Runways:

Airport contact information

Address: פ"ת Israel

Satellite view of LLBL